Date String (YYYY-MM-DD hh:mm:ss) UTC,Instrument flags,absolute air pressure of the measurement (hPa),sample flow rate (lpm),inlet stack bypass flow (lpm),air temperature of the measurement (°C),ambient temperature measured by the external sensor (°C),aerosol sample conditioner tube jacket temperature (°C),OPC LED temperature (°C),internal box temperature (°C),relative humidity of the measurement (%),span deviation,mass concentration of particles derived from Lorenz-Mie calculation of OPC scattering (μg/m³),mass concentration of particles derived from Lorenz-Mie calculation of OPC scattering (μg/m³),mass concentration of particles derived from Lorenz-Mie calculation of OPC scattering (μg/m³)
DateTimeUTC,F1_M11,P_M11,Q1_M11,Q2_M11,T1_M11,T2_M11,T3_M11,T4_M11,T5_M11,U1_M11,ZSPAN_M11,X2_M11,X0_M11,X1_M11
2023-09-19 05:00:00,SystemResetWarning,0828.3,5.00,000.00,028.0,026.9,000.0,036.4,029.7,17.0,0000.0,0001.78,0002.55,0001.42
2023-09-19 05:01:00,SystemResetWarning,0828.2,4.99,000.00,028.1,026.9,000.0,036.4,029.8,17.0,0000.0,0001.77,0002.55,0001.41
2023-09-19 05:02:00,SystemResetWarning,0828.2,5.00,000.00,028.1,027.0,000.0,036.4,029.8,17.2,0000.0,0001.77,0002.55,0001.40
2023-09-19 05:03:00,SystemResetWarning,0828.2,5.01,000.00,028.1,027.0,000.0,036.4,029.9,17.4,0000.0,0001.75,0002.47,0001.40
2023-09-19 05:04:00,SystemResetWarning,0828.2,5.00,000.00,028.2,027.1,000.0,036.4,029.9,17.6,0000.0,0001.77,0002.44,0001.41
2023-09-19 05:05:00,SystemResetWarning,0828.2,4.99,000.00,028.2,027.1,000.0,036.5,029.9,17.9,0000.0,0001.75,0002.40,0001.41
2023-09-19 05:06:00,SystemResetWarning,0828.2,5.00,000.00,028.2,027.1,000.0,036.5,030.0,17.7,0000.0,0001.76,0002.50,0001.41
2023-09-19 05:07:00,SystemResetWarning,0828.2,4.99,000.00,028.3,027.2,000.0,036.5,030.0,17.8,0000.0,0001.79,0002.67,0001.43
2023-09-19 05:08:00,SystemResetWarning,0828.2,5.00,000.00,028.3,027.2,000.0,036.5,030.1,17.9,0000.0,0001.83,0003.01,0001.44
2023-09-19 05:09:00,SystemResetWarning,0828.2,5.01,000.00,028.3,027.2,000.0,036.5,030.1,17.9,0000.0,0001.84,0003.36,0001.46
2023-09-19 05:10:00,SystemResetWarning,0828.2,5.01,000.00,028.3,027.3,000.0,036.6,030.1,17.8,0000.0,0001.86,0003.89,0001.47
2023-09-19 05:11:00,SystemResetWarning,0828.2,5.01,000.00,028.4,027.3,000.0,036.6,030.1,17.9,0000.0,0001.86,0003.93,0001.48
2023-09-19 05:12:00,SystemResetWarning,0828.1,5.00,000.00,028.4,027.3,000.0,036.6,030.2,17.9,0000.0,0001.87,0004.03,0001.49
2023-09-19 05:13:00,SystemResetWarning,0828.1,4.99,000.00,028.4,026.8,000.0,036.6,030.0,17.7,0000.0,0001.85,0003.99,0001.49
2023-09-19 05:14:00,SystemResetWarning,0828.1,4.99,000.00,028.3,025.0,000.0,036.6,029.5,17.8,0000.0,0001.86,0004.00,0001.50
2023-09-19 05:15:00,SystemResetWarning,0828.1,5.01,000.00,028.2,024.3,000.0,036.5,029.4,17.6,0000.0,0001.85,0003.99,0001.50
2023-09-19 05:16:00,SystemResetWarning,0828.1,5.00,000.00,028.1,024.5,000.0,036.5,029.3,17.2,0000.0,0001.86,0004.22,0001.49
2023-09-19 05:17:00,SystemResetWarning,0828.1,4.99,000.00,028.0,024.7,000.0,036.5,029.2,17.0,0000.0,0001.87,0004.19,0001.49
2023-09-19 05:18:00,SystemResetWarning,0828.1,5.00,000.00,028.0,025.1,000.0,036.5,029.3,17.1,0000.0,0001.85,0004.23,0001.48
2023-09-19 05:19:00,SystemResetWarning,0828.1,5.00,000.00,028.0,025.4,000.0,036.4,029.4,17.1,0000.0,0001.82,0004.37,0001.47
2023-09-19 05:20:00,SystemResetWarning,0828.0,4.99,000.00,027.9,025.7,000.0,036.4,029.4,17.2,0000.0,0001.79,0003.92,0001.46
2023-09-19 05:21:00,SystemResetWarning,0828.1,4.99,000.00,028.0,025.9,000.0,036.4,029.5,17.3,0000.0,0001.80,0003.48,0001.47
2023-09-19 05:22:00,SystemResetWarning,0828.1,5.00,000.00,028.0,026.1,000.0,036.4,029.5,17.2,0000.0,0001.83,0003.52,0001.47
2023-09-19 05:23:00,SystemResetWarning,0828.1,5.00,000.00,028.0,026.3,000.0,036.4,029.5,17.4,0000.0,0001.81,0003.49,0001.47
2023-09-19 05:24:00,SystemResetWarning,0828.1,5.01,000.00,028.0,026.5,000.0,036.4,029.6,17.5,0000.0,0001.80,0003.55,0001.45
2023-09-19 05:25:00,SystemResetWarning,0828.1,5.01,000.00,028.0,026.6,000.0,036.4,029.7,17.3,0000.0,0001.78,0004.04,0001.45
2023-09-19 05:26:00,SystemResetWarning,0828.1,4.99,000.00,028.1,026.7,000.0,036.4,029.7,17.2,0000.0,0001.82,0004.22,0001.44
2023-09-19 05:27:00,SystemResetWarning,0828.1,4.99,000.00,028.1,026.8,000.0,036.4,029.8,17.0,0000.0,0001.82,0004.08,0001.45
2023-09-19 05:28:00,SystemResetWarning,0828.1,5.00,000.00,028.1,026.8,000.0,036.4,029.8,16.9,0000.0,0001.82,0004.05,0001.45
2023-09-19 05:29:00,SystemResetWarning,0828.1,5.01,000.00,028.1,026.9,000.0,036.4,029.9,17.0,0000.0,0001.83,0004.35,0001.44
2023-09-19 05:30:00,SystemResetWarning,0828.1,5.00,000.00,028.2,027.0,000.0,036.4,029.9,17.0,0000.0,0001.84,0003.76,0001.44
2023-09-19 05:31:00,SystemResetWarning,0828.1,5.00,000.00,028.2,027.0,000.0,036.5,029.9,17.2,0000.0,0001.86,0003.79,0001.44
2023-09-19 05:32:00,SystemResetWarning,0828.0,4.99,000.00,028.2,027.1,000.0,036.5,029.9,17.3,0000.0,0001.86,0003.80,0001.43
2023-09-19 05:33:00,SystemResetWarning,0828.0,5.00,000.00,028.2,027.1,000.0,036.5,030.0,17.3,0000.0,0001.77,0003.66,0001.40
2023-09-19 05:34:00,SystemResetWarning,0828.1,5.01,000.00,028.3,027.1,000.0,036.5,030.0,17.1,0000.0,0001.73,0003.54,0001.38
2023-09-19 05:35:00,SystemResetWarning,0828.0,5.00,000.00,028.3,027.1,000.0,036.6,030.0,17.2,0000.0,0001.73,0003.50,0001.36
2023-09-19 05:36:00,SystemResetWarning,0828.0,5.00,000.00,028.3,027.1,000.0,036.6,030.0,17.1,0000.0,0001.71,0003.22,0001.34
2023-09-19 05:37:00,SystemResetWarning,0828.0,4.99,000.00,028.3,027.1,000.0,036.6,030.0,17.0,0000.0,0001.67,0002.81,0001.33
2023-09-19 05:38:00,SystemResetWarning,0828.0,5.00,000.00,028.4,027.2,000.0,036.6,030.0,17.1,0000.0,0001.65,0002.71,0001.33
2023-09-19 05:39:00,SystemResetWarning,0827.9,5.01,000.00,028.4,027.2,000.0,036.6,030.0,16.9,0000.0,0001.64,0002.71,0001.32
2023-09-19 05:40:00,SystemResetWarning,0827.8,5.01,000.00,028.4,027.2,000.0,036.7,030.1,16.9,0000.0,0001.61,0002.44,0001.31
2023-09-19 05:41:00,SystemResetWarning,0828.0,5.01,000.00,028.4,027.2,000.0,036.7,030.1,16.7,0000.0,0001.60,0002.26,0001.31
2023-09-19 05:42:00,SystemResetWarning,0827.9,5.00,000.00,028.4,027.2,000.0,036.7,030.1,16.8,0000.0,0001.57,0002.21,0001.31
2023-09-19 05:43:00,SystemResetWarning,0827.9,5.00,000.00,028.4,027.2,000.0,036.7,030.1,16.8,0000.0,0001.55,0002.16,0001.30
2023-09-19 05:44:00,SystemResetWarning,0827.9,4.99,000.00,028.5,027.2,000.0,036.7,030.1,16.8,0000.0,0001.56,0002.14,0001.30
2023-09-19 05:45:00,SystemResetWarning,0827.9,5.00,000.00,028.5,027.2,000.0,036.7,030.1,16.7,0000.0,0001.63,0002.43,0001.32
2023-09-19 05:46:00,SystemResetWarning,0828.0,5.01,000.00,028.5,027.2,000.0,036.7,030.1,16.7,0000.0,0001.62,0003.22,0001.32
2023-09-19 05:47:00,SystemResetWarning,0828.0,5.01,000.00,028.5,026.9,000.0,036.7,030.1,16.7,0000.0,0001.64,0003.62,0001.34
2023-09-19 05:48:00,SystemResetWarning,0827.9,4.98,000.00,028.4,025.2,000.0,036.7,029.6,16.9,0000.0,0001.66,0003.99,0001.36
2023-09-19 05:49:00,SystemResetWarning,0827.8,5.01,000.00,028.3,024.4,000.0,036.6,029.4,17.1,0000.0,0001.68,0004.02,0001.37
2023-09-19 05:50:00,SystemResetWarning,0827.9,5.01,000.00,028.2,024.4,000.0,036.6,029.3,17.2,0000.0,0001.68,0004.06,0001.37
2023-09-19 05:51:00,SystemResetWarning,0827.8,5.00,000.00,028.1,024.7,000.0,036.6,029.3,17.2,0000.0,0001.66,0003.99,0001.37
2023-09-19 05:52:00,SystemResetWarning,0827.9,5.00,000.00,028.0,025.0,000.0,036.6,029.3,17.2,0000.0,0001.63,0003.97,0001.37
2023-09-19 05:53:00,SystemResetWarning,0827.9,5.00,000.00,028.0,025.3,000.0,036.5,029.4,17.3,0000.0,0001.61,0004.02,0001.35
2023-09-19 05:54:00,SystemResetWarning,0828.0,5.00,000.00,028.0,025.6,000.0,036.5,029.4,17.3,0000.0,0001.61,0004.07,0001.33
2023-09-19 05:55:00,SystemResetWarning,0827.9,5.00,000.00,028.0,025.8,000.0,036.5,029.5,17.2,0000.0,0001.62,0004.11,0001.31
2023-09-19 05:56:00,SystemResetWarning,0827.8,5.00,000.00,028.0,026.0,000.0,036.5,029.5,17.3,0000.0,0001.56,0004.00,0001.30
2023-09-19 05:57:00,SystemResetWarning,0827.8,4.99,000.00,028.0,026.2,000.0,036.5,029.6,17.3,0000.0,0001.56,0003.17,0001.28
2023-09-19 05:58:00,SystemResetWarning,0827.8,4.99,000.00,028.0,026.3,000.0,036.5,029.6,17.3,0000.0,0001.59,0002.80,0001.28
2023-09-19 05:59:00,SystemResetWarning,0827.9,5.00,000.00,028.0,026.4,000.0,036.5,029.6,17.3,0000.0,0001.60,0002.37,0001.25
